loading
|
Showing default

SPACEMOBILE-004, 61049

Orbit data source: Space-Track

SPACEMOBILE-004, 61049 is a payload satellite owned by AST & Science (US) in LEO that was launched on Thu, 12 Sep 2024 UTC via an FALCON 9 launch vehicle from the Air Force Eastern Test Range (AFETR). Payloads include a variety of satellites, spacecraft, and rockets equipped with specific instruments for various scientific and technological missions. These include communications satellites like Starlink; space stations such as the ISS; scientific satellites like the Hubble; Earth observation satellites from companies like Planet Labs, Umbra, and HawkEye 360; GPS; miniature CubeSats for education and research; and military/defense satellites.

Loading next visibility...
Next conjunction unknown
Loading greatness...
SPACEMOBILE-004 details
Identifier
61049, 2024-163E
Orbit
LEO
Last TLE update8 hours ago
Origin
Flag of USAST & Science (US)
ManufacturerAST & Science
MissionOperational spacecraft
Bus & MotorBW3, Unknown motor
Mass1,500 kg wet, 1,500 kg dry
Launch date (UTC)
2024-09-12 (1 month ago)
Launch vehicle
FALCON 9
Launch site
Air Force Eastern Test Range (AFETR)
Object type
Payload
Rocket body
Debris
Shape & HBRUnknown
Radar Cross SectionLarge (>1 m²)

Expand to show TLE details & history

TLE from 8 hours ago
0 SPACEMOBILE-004
1 61049U 24163E   24288.29968084  .00006916  00000-0  34865-3 0  9997
2 61049  52.9763 235.6871 0013871  71.1365 289.1131 15.18184889  4843
Epoch: 2024-10-14T07:11Z
Definitive object data (Epoch: 2024-10-14T07:11:32.424Z)
Latitude-0.00003°
Longitude104.47318°
Altitude509.085 km
Speed7.612 km/s
True Right ascension15h 42m 44s
True Declination0° 00' 00"
Sunlit
Object was in daylight at TLE epoch
Predictive object data (real-time)
Latitude49.68266°
Longitude165.01921°
Altitude507.49 km
Speed7.622 km/s
Apparent Right ascension20h 55m 01s
Apparent Declination7° 20' 48"
Sunlit
Object is in daylight
Predictive observer data (real-time)
Local Sidereal Time09:58:41
Azimuth20.963° NNE
Elevation-40.501°
Doppler factor1
Orbital elements
Apogee521.168 km
Perigee502.054 km
Semi-major axis6,889.748 km
Eccentricity0.0013871
Inclination52.9763°
RAAN235.6871°
Arg. of periapsis71.1365°
True anomaly288.96283°
Mean anomaly289.1131°
Eccentric anomaly289.03797°
Mean motion3.79523 °/min
BSTAR0.00034865
Period94.86 mins
No data available
No data available

SPACEMOBILE-004 Visibility forecast

Observer location: 39.9160978°, -105.1181434

Span
Click to sort rows by Start time (UTC) header in descending order
Start Az.
Max El. time (UTC)
Max El. Az.
Max El.
End time (UTC)
End Az.
7 mins2024-10-14 23:09:30.451Z216.031° SW2024-10-14 23:12:30.451Z164.738° S40.418°2024-10-14 23:16:30.451Z56.678° ENE
4 mins2024-10-15 00:50:30.451Z304.329° NW2024-10-15 00:51:30.451Z326.996° NNW21.71°2024-10-15 00:54:30.451Z25.62° NE
6 mins2024-10-15 05:48:30.451Z320.918° NNW2024-10-15 05:51:30.451Z69.986° E39.017°2024-10-15 05:54:30.451Z116.059° SE